Albany, NY

5:32 AM EDT on September 16, 2019 (GMT -0400)
Albany International

Weather History for KALB - August, 2019

Change the Weather History Date:

Thursday, August 22, 2019

  Actual Average Record
Temperature  
Mean Temperature 75 °F 70 °F  
Max Temperature 85 °F 80 °F 93 °F (1916)
Min Temperature 65 °F 59 °F 39 °F (1982)
Degree Days  
Heating Degree Days 0 1  
Month to date heating degree days 0 5  
Since 1 June heating degree days 27 62  
Since 1 July heating degree days 0 10  
Cooling Degree Days 10 5  
Month to date cooling degree days 193 138  
Year to date cooling degree days 699 504  
Since 1 June cooling degree days 677 474  
Growing Degree Days 26 (Base 50)    
Moisture  
Dew Point 64 °F    
Average Humidity 70    
Maximum Humidity 90    
Minimum Humidity 49    
Precipitation  
Precipitation 0.00 in 0.10 in 1.44 in (1887)
Month to date precipitation 4.08 2.56  
Year to date precipitation 28.94 25.25  
Sea Level Pressure  
Sea Level Pressure 29.86 in    
Wind  
Wind Speed 7 mph (SSW)    
Max Wind Speed 17 mph    
Max Gust Speed 20 mph    
Visibility 5 miles    
Events Fog    
T = Trace of Precipitation, MM = Missing Value Source: NWS Daily Summary

Daily Weather History Graph

Daily Weather History Graph

Search for Another Location

Airport or City:

Astronomy

Aug. 22, 2019 Rise Set
Actual Time 6:08 AM EDT 7:46 PM EDT
Civil Twilight 5:38 AM EDT 8:16 PM EDT
Nautical Twilight 5:02 AM EDT 8:52 PM EDT
Astronomical Twilight 4:23 AM EDT 9:31 PM EDT
Moon 11:25 PM EDT (8/22) 12:50 PM EDT (8/22)
Length of Visible Light 14h 37m
Length of Day
13h 37m
Waning Gibbous, 60% of the Moon is Illuminated
Aug 22
Waning Gibbous
Aug 23
Last Quarter
Aug 30
New
Sep 5
First Quarter
Sep 14
Full

Hourly Weather History & Observations

Time (EDT) Temp. Heat Index Dew Point Humidity Pressure Visibility Wind Dir Wind Speed Gust Speed Precip Events Conditions
12:15 AM 70.0 °F - 66.9 °F 90% 29.85 in 2.0 mi South 5.8 mph - N/A Fog Patches of Fog
12:39 AM 70.0 °F - 66.9 °F 90% 29.84 in 2.0 mi South 5.8 mph - N/A Fog Patches of Fog
12:51 AM 70.0 °F - 66.9 °F 90% 29.84 in 2.0 mi SSE 5.8 mph - N/A Fog Patches of Fog
1:08 AM 70.0 °F - 66.9 °F 90% 29.84 in 5.0 mi South 8.1 mph - N/A Fog Patches of Fog
1:28 AM 70.0 °F - 66.9 °F 90% 29.84 in 2.0 mi South 8.1 mph - N/A Fog Patches of Fog
1:51 AM 70.0 °F - 66.9 °F 90% 29.83 in 2.0 mi South 6.9 mph - N/A Fog Patches of Fog
2:51 AM 70.0 °F - 66.9 °F 90% 29.82 in 2.0 mi South 3.5 mph - N/A Fog Patches of Fog
3:09 AM 70.0 °F - 66.9 °F 90% 29.82 in 1.5 mi SSE 4.6 mph - N/A Fog Patches of Fog
3:26 AM 70.0 °F - 66.9 °F 90% 29.82 in 1.2 mi South 3.5 mph - N/A Fog Patches of Fog
3:34 AM 69.1 °F - 66.9 °F 93% 29.82 in 0.5 mi South 4.6 mph - N/A Fog Patches of Fog
3:51 AM 69.1 °F - 66.9 °F 93% 29.81 in 1.0 mi South 5.8 mph - N/A Fog Patches of Fog
4:11 AM 69.1 °F - 66.0 °F 90% 29.81 in 1.2 mi SSE 3.5 mph - N/A Fog Patches of Fog
4:51 AM 69.1 °F - 66.0 °F 90% 29.80 in 1.0 mi Calm Calm - N/A Fog Patches of Fog
5:03 AM 69.1 °F - 66.0 °F 90% 29.80 in 0.2 mi Calm Calm - N/A Fog Patches of Fog
5:51 AM 69.1 °F - 66.9 °F 93% 29.82 in 0.2 mi Calm Calm - N/A Fog Fog
6:00 AM 69.1 °F - 66.9 °F 93% 29.83 in 1.0 mi South 4.6 mph - N/A   Overcast
6:20 AM 69.1 °F - 66.9 °F 93% 29.84 in 1.0 mi South 4.6 mph - N/A   Overcast
6:51 AM 69.1 °F - 66.9 °F 93% 29.85 in 1.0 mi South 5.8 mph - N/A Fog Patches of Fog
7:16 AM 69.1 °F - 66.9 °F 93% 29.86 in 0.8 mi South 5.8 mph - N/A Fog Patches of Fog
7:21 AM 69.1 °F - 66.9 °F 93% 29.86 in 0.8 mi South 3.5 mph - N/A Fog Patches of Fog
7:25 AM 69.1 °F - 66.9 °F 93% 29.86 in 0.5 mi South 4.6 mph - N/A Fog Fog
7:40 AM 69.1 °F - 66.9 °F 93% 29.86 in 0.2 mi South 4.6 mph - N/A Fog Fog
7:51 AM 70.0 °F - 66.9 °F 90% 29.86 in 0.2 mi South 5.8 mph - N/A Fog Fog
8:17 AM 70.0 °F - 68.0 °F 93% 29.87 in 0.5 mi South 5.8 mph - N/A Fog Fog
8:39 AM 70.0 °F - 68.0 °F 93% 29.87 in 1.0 mi SSE 3.5 mph - N/A   Overcast
8:45 AM 69.8 °F - 66.2 °F 88% 29.87 in 2.0 mi SSE 4.6 mph - N/A   Overcast
8:51 AM 71.1 °F - 68.0 °F 90% 29.87 in 2.0 mi SSE 6.9 mph - N/A   Overcast
9:07 AM 71.1 °F - 68.0 °F 90% 29.87 in 2.0 mi South 4.6 mph - N/A   Mostly Cloudy
9:20 AM 72.0 °F - 68.0 °F 87% 29.87 in 6.0 mi South 5.8 mph - N/A   Scattered Clouds
9:51 AM 75.9 °F - 69.1 °F 79% 29.87 in 10.0 mi South 4.6 mph - N/A   Scattered Clouds
10:19 AM 79.0 °F - 69.1 °F 72% 29.87 in 10.0 mi WNW 6.9 mph - N/A   Mostly Cloudy
10:51 AM 81.0 °F 83.3 °F 66.9 °F 62% 29.88 in 10.0 mi WNW 12.7 mph - N/A   Mostly Cloudy
10:59 AM 82.0 °F 84.5 °F 66.9 °F 60% 29.89 in 10.0 mi West 11.5 mph - N/A   Scattered Clouds
11:51 AM 82.0 °F 84.1 °F 66.0 °F 58% 29.88 in 10.0 mi West 10.4 mph - N/A   Mostly Cloudy
12:51 PM 81.0 °F 83.0 °F 66.0 °F 60% 29.87 in 10.0 mi NNW 6.9 mph - N/A   Mostly Cloudy
1:51 PM 84.0 °F 85.8 °F 64.9 °F 53% 29.86 in 10.0 mi WNW 8.1 mph - N/A   Scattered Clouds
2:51 PM 84.0 °F 86.3 °F 66.0 °F 55% 29.86 in 10.0 mi NNW 12.7 mph - N/A   Scattered Clouds
3:51 PM 81.0 °F 81.7 °F 61.0 °F 50% 29.86 in 10.0 mi NNW 11.5 mph - N/A   Mostly Cloudy
4:51 PM 80.1 °F 80.7 °F 59.0 °F 48% 29.88 in 10.0 mi NW 11.5 mph - N/A   Mostly Cloudy
5:51 PM 75.9 °F - 55.0 °F 48% 29.88 in 10.0 mi NW 8.1 mph - N/A   Mostly Cloudy
6:51 PM 73.9 °F - 57.0 °F 55% 29.88 in 10.0 mi NW 6.9 mph - N/A   Mostly Cloudy
7:51 PM 73.0 °F - 55.0 °F 53% 29.90 in 10.0 mi NW 6.9 mph - N/A   Mostly Cloudy
8:51 PM 73.0 °F - 54.0 °F 51% 29.92 in 10.0 mi WNW 9.2 mph - N/A   Mostly Cloudy
9:51 PM 70.0 °F - 53.1 °F 55% 29.93 in 10.0 mi WNW 10.4 mph - N/A   Scattered Clouds
11:51 PM 66.0 °F - 52.0 °F 60% 29.95 in 10.0 mi WNW 6.9 mph - N/A   Scattered Clouds